| time (UTC) | temp F | wind direction | speed knots | gust knots | rain 1hr in | rain 24hr in | rain mn in | humidity % | barometer mb |
| 20260831213030 | 53 | 115 | 0.0 | 0.9 | 0.03 | 0.63 | 0.27 | 91 | 1014.7 |
| 20260831211531 | 52 | 110 | 0.0 | 0.9 | 0.03 | 0.63 | 0.27 | 91 | 1014.6 |
| 20260831210029 | 53 | 95 | 0.0 | 0.0 | 0.02 | 0.61 | 0.25 | 91 | 1014.6 |
| 20260831204529 | 53 | 189 | 0.0 | 0.0 | 0.04 | 0.61 | 0.25 | 91 | 1014.6 |
| 20260831203029 | 53 | 189 | 0.0 | 0.0 | 0.07 | 0.60 | 0.24 | 90 | 1014.9 |
| 20260831201629 | 53 | 189 | 0.0 | 0.0 | 0.11 | 0.60 | 0.24 | 93 | 1014.8 |
| 20260831200039 | 52 | 192 | 0.0 | 0.0 | 0.14 | 0.59 | 0.23 | 93 | 1015.0 |
| 20260831194528 | 52 | 319 | 0.0 | 0.0 | 0.13 | 0.56 | 0.21 | 93 | 1015.7 |
| 20260831193036 | 52 | 93 | 0.0 | 1.7 | 0.09 | 0.53 | 0.17 | 91 | 1015.7 |
| 20260831191532 | 53 | 124 | 0.0 | 0.9 | 0.04 | 0.48 | 0.12 | 88 | 1015.5 |
| 20260831190025 | 54 | 146 | 0.0 | 0.0 | 0.01 | 0.45 | 0.09 | 85 | 1015.1 |
| 20260831184525 | 55 | 113 | 0.0 | 2.6 | 0.00 | 0.44 | 0.08 | 80 | 1015.0 |
| 20260831183023 | 56 | 109 | 0.0 | 1.7 | 0.00 | 0.44 | 0.08 | 78 | 1015.2 |
| 20260831181525 | 56 | 96 | 0.0 | 0.9 | 0.00 | 0.44 | 0.08 | 79 | 1015.2 |
| 20260831180033 | 56 | 71 | 0.0 | 0.9 | 0.00 | 0.44 | 0.08 | 80 | 1015.3 |
| 20260831174524 | 56 | 239 | 0.0 | 0.9 | 0.00 | 0.44 | 0.08 | 78 | 1015.3 |
| 20260831173021 | 57 | 230 | 0.0 | 0.9 | 0.00 | 0.44 | 0.08 | 77 | 1015.5 |
| 20260831171519 | 56 | 23 | 0.0 | 0.9 | 0.00 | 0.44 | 0.08 | 80 | 1015.4 |
| 20260831170019 | 56 | 44 | 0.0 | 3.5 | 0.00 | 0.44 | 0.08 | 76 | 1015.5 |
| 20260831164535 | 56 | 130 | 0.0 | 4.3 | 0.00 | 0.44 | 0.08 | 80 | 1015.3 |
| 20260831163017 | 56 | 172 | 0.0 | 2.6 | 0.00 | 0.44 | 0.08 | 79 | 1015.2 |
| 20260831161515 | 55 | 307 | 0.0 | 1.7 | 0.00 | 0.44 | 0.08 | 81 | 1015.0 |
| 20260831160012 | 55 | 174 | 0.0 | 1.7 | 0.00 | 0.44 | 0.08 | 88 | 1014.9 |
| 20260831154508 | 53 | 129 | 0.0 | 0.9 | 0.00 | 0.44 | 0.08 | 91 | 1015.0 |
| 20260831153003 | 51 | 264 | 0.0 | 0.0 | 0.00 | 0.44 | 0.08 | 94 | 1014.8 |
| 20260831151501 | 50 | 174 | 0.0 | 0.0 | 0.00 | 0.44 | 0.08 | 96 | 1014.9 |
| 20260831150058 | 50 | 174 | 0.0 | 0.0 | 0.00 | 0.44 | 0.08 | 97 | 1014.9 |
| 20260831144608 | 49 | 174 | 0.0 | 0.0 | 0.00 | 0.44 | 0.08 | 96 | 1014.9 |
| 20260831143101 | 48 | 174 | 0.0 | 0.0 | 0.00 | 0.44 | 0.08 | 97 | 1015.0 |
| 20260831141602 | 48 | 172 | 0.0 | 0.0 | 0.00 | 0.44 | 0.08 | 97 | 1014.8 |
| 20260831140050 | 48 | 172 | 0.0 | 0.0 | 0.00 | 0.44 | 0.08 | 97 | 1014.7 |
| 20260831134554 | 47 | 172 | 0.0 | 0.0 | 0.00 | 0.44 | 0.08 | 97 | 1014.6 |
| 20260831133049 | 47 | 172 | 0.0 | 0.0 | 0.00 | 0.44 | 0.08 | 96 | 1014.6 |
| 20260831131552 | 47 | 172 | 0.0 | 0.0 | 0.00 | 0.44 | 0.08 | 96 | 1014.1 |
| 20260831130049 | 47 | 172 | 0.0 | 0.0 | 0.00 | 0.44 | 0.08 | 96 | 1014.2 |
| 20260831124547 | 47 | 172 | 0.0 | 0.0 | 0.00 | 0.44 | 0.08 | 96 | 1014.0 |
| 20260831123046 | 47 | 172 | 0.0 | 0.0 | 0.00 | 0.44 | 0.08 | 96 | 1014.2 |
| 20260831121545 | 47 | 172 | 0.0 | 0.0 | 0.00 | 0.44 | 0.08 | 96 | 1013.9 |
| 20260831120044 | 47 | 127 | 0.0 | 0.0 | 0.00 | 0.44 | 0.08 | 96 | 1013.9 |
| 20260831114544 | 47 | 127 | 0.0 | 0.0 | 0.00 | 0.44 | 0.08 | 96 | 1014.0 |
| 20260831113041 | 47 | 257 | 0.0 | 0.0 | 0.00 | 0.44 | 0.08 | 96 | 1014.2 |
| 20260831111552 | 47 | 262 | 0.0 | 0.0 | 0.00 | 0.44 | 0.08 | 96 | 1014.7 |
| 20260831110048 | 47 | 262 | 0.0 | 0.0 | 0.00 | 0.44 | 0.08 | 96 | 1015.0 |
| 20260831104554 | 47 | 262 | 0.0 | 0.0 | 0.01 | 0.44 | 0.08 | 96 | 1015.8 |
| 20260831103040 | 47 | 262 | 0.0 | 0.0 | 0.01 | 0.44 | 0.08 | 96 | 1015.7 |
| 20260831101542 | 47 | 262 | 0.0 | 0.0 | 0.01 | 0.44 | 0.08 | 96 | 1015.4 |
| 20260831100045 | 47 | 262 | 0.0 | 0.0 | 0.01 | 0.44 | 0.08 | 96 | 1015.2 |
| 20260831094538 | 47 | 221 | 0.0 | 0.9 | 0.00 | 0.43 | 0.07 | 96 | 1015.2 |
| 20260831093046 | 47 | 223 | 0.0 | 0.0 | 0.01 | 0.43 | 0.07 | 96 | 1015.2 |
| 20260831091536 | 47 | 223 | 0.0 | 0.0 | 0.02 | 0.43 | 0.07 | 96 | 1014.8 |
| 20260831090041 | 47 | 223 | 0.0 | 0.0 | 0.05 | 0.43 | 0.07 | 96 | 1014.5 |
| 20260831084535 | 47 | 248 | 0.0 | 0.0 | 0.06 | 0.43 | 0.07 | 96 | 1014.9 |
| 20260831083035 | 47 | 265 | 0.0 | 0.9 | 0.05 | 0.42 | 0.06 | 96 | 1015.6 |
| 20260831081534 | 47 | 138 | 0.0 | 0.0 | 0.05 | 0.41 | 0.05 | 96 | 1015.8 |
| 20260831080036 | 47 | 138 | 0.0 | 0.9 | 0.02 | 0.38 | 0.02 | 95 | 1016.2 |
| 20260831074533 | 47 | 138 | 0.0 | 0.0 | 0.01 | 0.37 | 0.01 | 96 | 1015.9 |
| 20260831073028 | 47 | 138 | 0.0 | 0.0 | 0.01 | 0.37 | 0.01 | 95 | 1015.6 |
| 20260831071530 | 47 | 138 | 0.0 | 0.0 | 0.00 | 0.36 | 0.00 | 95 | 1014.9 |
| 20260831070024 | 47 | 269 | 0.0 | 0.0 | 0.00 | 0.36 | 0.00 | 95 | 1014.6 |
| 20260831064524 | 47 | 269 | 0.0 | 0.0 | 0.00 | 0.36 | 0.00 | 95 | 1014.9 |
| 20260831063021 | 47 | 269 | 0.0 | 0.0 | 0.00 | 0.36 | 0.00 | 95 | 1014.7 |
| 20260831061520 | 47 | 269 | 0.0 | 0.0 | 0.00 | 0.36 | 0.00 | 95 | 1014.5 |
| 20260831060020 | 47 | 269 | 0.0 | 0.0 | 0.00 | 0.36 | 0.00 | 95 | 1014.3 |
| 20260831054517 | 47 | 269 | 0.0 | 0.0 | 0.00 | 0.36 | 0.36 | 94 | 1014.3 |
| 20260831053021 | 48 | 269 | 0.0 | 0.0 | 0.03 | 0.36 | 0.36 | 94 | 1014.4 |
| 20260831051516 | 48 | 269 | 0.0 | 0.0 | 0.06 | 0.36 | 0.36 | 94 | 1014.1 |
| 20260831050017 | 49 | 269 | 0.0 | 0.0 | 0.07 | 0.36 | 0.36 | 94 | 1014.4 |
| 20260831044514 | 49 | 269 | 0.0 | 0.9 | 0.07 | 0.36 | 0.36 | 93 | 1014.3 |
| 20260831043013 | 49 | 13 | 0.0 | 0.9 | 0.02 | 0.31 | 0.31 | 92 | 1014.4 |
| 20260831041512 | 49 | 76 | 0.0 | 0.9 | 0.01 | 0.30 | 0.30 | 91 | 1014.0 |
| 20260831040012 | 49 | 129 | 0.0 | 0.9 | 0.00 | 0.28 | 0.28 | 92 | 1013.9 |
| 20260831034511 | 49 | 63 | 0.0 | 0.9 | 0.02 | 0.28 | 0.28 | 92 | 1013.9 |
| 20260831033012 | 49 | 179 | 0.0 | 1.7 | 0.06 | 0.28 | 0.28 | 91 | 1013.9 |
| 20260831031517 | 50 | 258 | 0.0 | 0.9 | 0.10 | 0.28 | 0.28 | 92 | 1013.4 |
| 20260831030008 | 50 | 255 | 0.0 | 0.9 | 0.13 | 0.28 | 0.28 | 92 | 1013.6 |
| 20260831024508 | 50 | 117 | 0.0 | 0.0 | 0.14 | 0.27 | 0.27 | 92 | 1013.9 |
| 20260831023005 | 51 | 188 | 0.0 | 0.0 | 0.11 | 0.23 | 0.23 | 90 | 1013.9 |
| 20260831021507 | 52 | 294 | 0.0 | 0.0 | 0.07 | 0.19 | 0.19 | 88 | 1013.1 |
| 20260831020003 | 53 | 294 | 0.0 | 0.9 | 0.04 | 0.16 | 0.16 | 85 | 1012.6 |
| 20260831014502 | 56 | 237 | 0.0 | 0.9 | 0.00 | 0.12 | 0.12 | 76 | 1011.3 |
| 20260831013002 | 55 | 178 | 0.0 | 0.9 | 0.00 | 0.12 | 0.12 | 79 | 1010.4 |
| 20260831011502 | 56 | 178 | 0.0 | 1.7 | 0.00 | 0.12 | 0.12 | 76 | 1010.0 |
| 20260831010002 | 57 | 129 | 0.0 | 2.6 | 0.00 | 0.12 | 0.12 | 76 | 1009.6 |
| 20260831004600 | 58 | 139 | 0.0 | 0.0 | 0.00 | 0.12 | 0.12 | 78 | 1009.8 |
| 20260831003102 | 59 | 168 | 0.0 | 0.0 | 0.00 | 0.12 | 0.12 | 81 | 1009.6 |
| 20260831001608 | 60 | 168 | 0.0 | 0.0 | 0.00 | 0.12 | 0.12 | 77 | 1009.3 |
| 20260830234603 | 63 | 139 | 0.0 | 0.0 | 0.00 | 0.12 | 0.12 | 71 | 1009.4 |
| 20260830233057 | 63 | 139 | 0.0 | 0.9 | 0.04 | 0.12 | 0.12 | 70 | 1009.8 |
| 20260830231557 | 61 | 134 | 0.0 | 0.9 | 0.12 | 0.12 | 0.12 | 78 | 1009.9 |
| 20260830230056 | 57 | 64 | 0.0 | 1.7 | 0.12 | 0.12 | 0.12 | 87 | 1010.0 |
| 20260830224556 | 56 | 48 | 0.0 | 0.9 | 0.12 | 0.12 | 0.12 | 86 | 1010.3 |
| 20260830223054 | 62 | 269 | 0.0 | 6.1 | 0.07 | 0.07 | 0.07 | 61 | 1010.6 |
| 20260830221552 | 67 | 271 | 1.7 | 5.2 | 0.00 | 0.00 | 0.00 | 38 | 1009.2 |
| 20260830220057 | 69 | 319 | 0.0 | 8.7 | 0.00 | 0.00 | 0.00 | 43 | 1009.4 |
| 20260830214613 | 68 | 231 | 0.0 | 3.5 | 0.00 | 0.00 | 0.00 | 41 | 1009.6 |